sat.trackr.live / text

‹ back to catalog

STARLINK-34834

NORAD 65295 · 2025-184Y

PAYLOAD ACTIVE UNKNOWN

§ Identity

Operator
Country
US
Launch date
2025-08-22
Launch site
AFWTR
Launch vehicle
Mass (kg)
RCS (m²)

Purposes: comms

External: N2YO · Heavens-Above · Gunter

§ Orbital elements

Epoch: 2026-05-25T02:32:08.002752Z

Period
95.64 min
Inclination
97.4506°
Eccentricity
0.0001674
Mean motion
15.05656462 rev/d
Perigee alt
548.3 km
Apogee alt
550.7 km
Semi-major
6,927.6 km
B*
1.6326e-4
RAAN
197.5320°
Arg perigee
134.4257°
Mean anomaly
225.7108°
Rev number
4,279

§ Raw data

STARLINK-348341 65295U 25184Y   26145.10564818  .00002298  00000+0  16326-3 0  99992 65295  97.4506 197.5320 0001674 134.4257 225.7108 15.05656462 42798

JSON: /api/v1/satellites/65295 · /tle

For live sub-satellite position, see the globe view (requires WebGL).

§ Visibility from observer

Set your observer location to see the next 7 days of passes ≥ 10°. The values pass through the URL so the page stays shareable.

No JS? Fill the form by hand. The geolocation button needs JavaScript.